Погода в Братском

Россия / Чеченская Республика     43°39′04″N   44°53′14″E
темп.,
°C
ветер,
м/с
пор.,
м/с
влажн.,
%
обл.,
%
осадки,
мм/ч
давл.,
гПа
погр.,
м
21 апреля, ср
ср2100:00+17зсз71084100 0.0 1012462
03:00+15зсз5979100 0.0 1013414
06:00+15зсз4761100 0.0 1015529
09:00+15сз4759100 0.0 1019780
12:00+14ссз4562100 0.0 1019778
15:00+15с4462100 0.0 1020911
18:00+13сз2367100 0.0 1022380
21:00+13ссз2368100 0.0 1022135
22 апреля, чт
чт2200:00+12зсз0177100 0.1 102112
03:00+12зсз1177100 0.3 102114
06:00+12св1176100 0.0 102214
09:00+12ссв2375100 0.0 1023323
12:00+14ссв4472100 0.0 1023806
15:00+14св3468100 0.0 1022848
18:00+13ссв3475100 0.0 1022192
21:00+12ссв2482100 0.2 1022195
23 апреля, пт
пт2300:00+11с2492100 0.9 1021213
03:00+10с3695100 3.1 1022321
06:00+10ссв2392100 5.2 1023230
09:00+10юз2289100 6.5 1024230
12:00+12з228098 0.3 1023383
15:00+16зсз346180 0.3 1022884
18:00+16ссз11670 0.0 102219
21:00+12юв33765 0.0 102131
24 апреля, сб
сб2400:00+10юв348096 0.0 101962
03:00+10юв2282100 0.0 101830
06:00+11юв2280100 0.0 101957
09:00+15всв1162100 0.0 1019430
12:00+19в224692 0.0 1018996
15:00+21в234095 0.0 10171644
18:00+19в225319 0.0 101842
21:00+16вюв366297 0.0 1019174
25 апреля, вс
вс2500:00+14юв2465100 0.0 1019115
03:00+14всв2362100 0.0 101883
06:00+13всв246769 0.0 1018218
09:00+16в335846 0.0 1016684
12:00+20в33487 0.0 10141341
15:00+21с214490 0.0 10131823
18:00+16ссз81165100 0.0 1014531
21:00+13сз6781100 0.0 1016729